Ravenna, OH

11:09 AM EDT on March 23, 2017 (GMT -0400)
Ravenna

Weather History for KPOV - February, 2013

Change the Weather History Date:

Sunday, February 10, 2013

  Actual Average (KCAK) Record (KCAK)
Temperature  
Mean Temperature 31 °F -  
Max Temperature 45 °F 33 °F 63 °F (1932)
Min Temperature 17 °F 15 °F -20 °F (1899)
Degree Days  
Heating Degree Days 34    
Moisture  
Dew Point 18 °F    
Average Humidity 57    
Maximum Humidity 80    
Minimum Humidity 29    
Precipitation  
Precipitation 0.00 in - - ()
Sea Level Pressure  
Sea Level Pressure 30.11 in    
Wind  
Wind Speed 5 mph (ESE)    
Max Wind Speed 10 mph    
Max Gust Speed 17 mph    
Visibility 10 miles    
Events Rain    
Averages and records for this station are not official NWS values.
T = Trace of Precipitation, MM = Missing Value Source: NWS Daily Summary

Daily Weather History Graph

Daily Weather History Graph

Search for Another Location

Airport or City:

Trip Planner

Search our weather history database for the weather conditions in past years. The results will help you decide how hot, cold, wet, or windy it might be!

Date:

Astronomy

Feb. 10, 2013 Rise Set
Actual Time 7:25 AM EST 5:53 PM EST
Civil Twilight 6:57 AM EST 6:21 PM EST
Nautical Twilight 6:24 AM EST 6:54 PM EST
Astronomical Twilight 5:52 AM EST 7:26 PM EST
Moon 7:13 AM EST (2/10) 6:43 PM EST (2/10)
Length of Visible Light 11h 24m
Length of Day
10h 27m
New Moon, 0% of the Moon is Illuminated
Feb 10
New Moon
Feb 17
First Quarter
Feb 25
Full
Mar 4
Last Quarter
Mar 11
New

Hourly Weather History & Observations

Time (EST) Temp. Windchill Dew Point Humidity Pressure Visibility Wind Dir Wind Speed Gust Speed Precip Events Conditions
12:16 AM 20.1 °F 15.2 °F 14.0 °F 77% 30.29 in 10.0 mi SE 3.5 mph - N/A   Clear
12:35 AM 20.5 °F - 14.0 °F 76% 30.30 in 10.0 mi Calm Calm - N/A   Clear
12:55 AM 18.7 °F - 12.9 °F 78% 30.29 in 10.0 mi Calm Calm - N/A   Clear
1:16 AM 20.1 °F 15.2 °F 13.8 °F 77% 30.29 in 10.0 mi ESE 3.5 mph - N/A   Clear
1:35 AM 17.4 °F 10.4 °F 11.5 °F 78% 30.28 in 10.0 mi ESE 4.6 mph - N/A   Clear
1:55 AM 18.1 °F 12.9 °F 12.4 °F 78% 30.27 in 10.0 mi SE 3.5 mph - N/A   Clear
2:15 AM 19.8 °F 11.9 °F 13.8 °F 78% 30.27 in 10.0 mi SE 5.8 mph - N/A   Clear
2:35 AM 20.7 °F 15.8 °F 13.8 °F 75% 30.27 in 10.0 mi ESE 3.5 mph - N/A   Clear
2:56 AM 19.0 °F 12.3 °F 12.7 °F 76% 30.27 in 10.0 mi ESE 4.6 mph - N/A   Clear
3:15 AM 19.8 °F 13.2 °F 13.1 °F 75% 30.26 in 10.0 mi ESE 4.6 mph - N/A   Clear
3:35 AM 19.6 °F 13.0 °F 13.3 °F 77% 30.25 in 10.0 mi ESE 4.6 mph - N/A   Clear
3:55 AM 19.6 °F 10.6 °F 13.3 °F 77% 30.25 in 10.0 mi ESE 6.9 mph - N/A   Clear
4:16 AM 20.1 °F 12.3 °F 14.0 °F 77% 30.24 in 10.0 mi ESE 5.8 mph - N/A   Clear
4:35 AM 20.3 °F 11.5 °F 14.2 °F 77% 30.24 in 10.0 mi ESE 6.9 mph - N/A   Clear
4:55 AM 20.8 °F 13.2 °F 14.4 °F 76% 30.24 in 10.0 mi ESE 5.8 mph - N/A   Clear
5:15 AM 21.4 °F 13.8 °F 14.7 °F 75% 30.24 in 10.0 mi ESE 5.8 mph - N/A   Clear
5:56 AM 20.5 °F 14.0 °F 14.2 °F 77% 30.24 in 10.0 mi East 4.6 mph - N/A   Clear
6:15 AM 19.4 °F 12.8 °F 14.2 °F 80% 30.25 in 10.0 mi East 4.6 mph - N/A   Clear
6:35 AM 18.9 °F 12.1 °F 13.6 °F 80% 30.25 in 10.0 mi ESE 4.6 mph - N/A   Clear
6:56 AM 19.9 °F 11.1 °F 14.4 °F 79% 30.24 in 10.0 mi East 6.9 mph - N/A   Clear
7:16 AM 20.7 °F 11.9 °F 14.7 °F 78% 30.23 in 10.0 mi East 6.9 mph - N/A   Clear
7:35 AM 20.8 °F 12.1 °F 14.9 °F 78% 30.24 in 10.0 mi East 6.9 mph - N/A   Clear
7:55 AM 20.7 °F 11.9 °F 14.9 °F 78% 30.24 in 10.0 mi East 6.9 mph - N/A   Clear
8:16 AM 21.2 °F 12.6 °F 14.9 °F 77% 30.24 in 10.0 mi East 6.9 mph - N/A   Clear
8:35 AM 21.9 °F 12.5 °F 15.4 °F 76% 30.22 in 10.0 mi East 8.1 mph - N/A   Clear
8:55 AM 22.8 °F 13.6 °F 16.0 °F 75% 30.22 in 10.0 mi East 8.1 mph - N/A   Clear
9:15 AM 24.4 °F 16.5 °F 16.7 °F 72% 30.21 in 10.0 mi ESE 6.9 mph - N/A   Clear
9:35 AM 27.3 °F 19.1 °F 17.6 °F 67% 30.19 in 10.0 mi ESE 8.1 mph - N/A   Clear
9:56 AM 29.1 °F 20.6 °F 18.0 °F 63% 30.17 in 10.0 mi ESE 9.2 mph - N/A   Scattered Clouds
10:15 AM 30.4 °F 24.5 °F 17.6 °F 59% 30.19 in 10.0 mi SSE 5.8 mph - N/A   Scattered Clouds
10:35 AM 31.6 °F 27.0 °F 18.0 °F 57% 30.19 in 10.0 mi SSE 4.6 mph - N/A   Clear
10:55 AM 33.6 °F 29.4 °F 18.3 °F 54% 30.18 in 10.0 mi SE 4.6 mph - N/A   Clear
11:16 AM 36.3 °F 31.6 °F 18.0 °F 47% 30.18 in 10.0 mi ESE 5.8 mph - N/A   Clear
11:35 AM 39.4 °F 34.5 °F 16.7 °F 40% 30.17 in 10.0 mi ESE 6.9 mph - N/A   Clear
11:55 AM 41.9 °F 38.2 °F 14.5 °F 33% 30.16 in 10.0 mi SE 5.8 mph - N/A   Clear
12:16 PM 42.6 °F 39.9 °F 14.4 °F 32% 30.15 in 10.0 mi South 4.6 mph - N/A   Clear
12:35 PM 44.4 °F 40.5 °F 14.4 °F 30% 30.13 in 10.0 mi SE 6.9 mph - N/A   Clear
12:55 PM 45.0 °F 42.6 °F 14.2 °F 29% 30.12 in 10.0 mi SSE 4.6 mph - N/A   Clear
1:15 PM 45.5 °F 42.5 °F 15.8 °F 30% 30.09 in 10.0 mi SSE 5.8 mph - N/A   Clear
1:35 PM 44.2 °F 40.3 °F 16.0 °F 32% 30.07 in 10.0 mi SSE 6.9 mph - N/A   Scattered Clouds
1:55 PM 43.9 °F 40.5 °F 17.4 °F 35% 30.06 in 10.0 mi ESE 5.8 mph - N/A   Overcast
2:16 PM 43.7 °F 42.1 °F 17.8 °F 35% 30.06 in 10.0 mi SE 3.5 mph - N/A   Overcast
2:35 PM 43.7 °F 40.3 °F 17.8 °F 35% 30.07 in 10.0 mi SE 5.8 mph - N/A   Overcast
2:55 PM 43.2 °F 39.0 °F 19.4 °F 39% 30.06 in 10.0 mi ESE 6.9 mph - N/A   Overcast
3:16 PM 42.4 °F 37.5 °F 19.9 °F 41% 30.03 in 10.0 mi ESE 8.1 mph - N/A   Overcast
3:35 PM 42.3 °F 37.3 °F 20.1 °F 41% 30.03 in 10.0 mi ESE 8.1 mph - N/A   Overcast
3:56 PM 42.8 °F 38.6 °F 19.4 °F 39% 30.03 in 10.0 mi SE 6.9 mph - N/A   Overcast
4:15 PM 42.8 °F 39.3 °F 19.8 °F 40% 30.03 in 10.0 mi ESE 5.8 mph - N/A   Overcast
4:35 PM 42.1 °F 37.1 °F 20.8 °F 43% 30.01 in 10.0 mi ESE 8.1 mph - N/A   Overcast
4:55 PM 41.9 °F 37.5 °F 21.7 °F 45% 30.00 in 10.0 mi ESE 6.9 mph - N/A   Overcast
5:15 PM 41.9 °F 38.2 °F 21.7 °F 45% 30.00 in 10.0 mi ESE 5.8 mph - N/A   Overcast
5:35 PM 41.4 °F 36.8 °F 22.1 °F 46% 30.00 in 10.0 mi ESE 6.9 mph - N/A   Overcast
5:55 PM 42.1 °F 40.2 °F 21.0 °F 43% 30.00 in 10.0 mi ESE 3.5 mph - N/A   Overcast
6:16 PM 41.9 °F 36.9 °F 21.6 °F 44% 30.00 in 10.0 mi ESE 8.1 mph - N/A   Overcast
6:35 PM 41.2 °F 36.0 °F 22.3 °F 47% 29.98 in 10.0 mi ESE 8.1 mph - N/A   Overcast
6:56 PM 41.2 °F 35.5 °F 21.9 °F 46% 29.97 in 10.0 mi ESE 9.2 mph - N/A   Overcast
7:16 PM 41.9 °F 35.9 °F 22.1 °F 45% 29.95 in 10.0 mi ESE 10.4 mph - N/A   Overcast
7:35 PM 41.9 °F 36.3 °F 21.9 °F 45% 29.95 in 10.0 mi ESE 9.2 mph - N/A   Overcast
7:56 PM 42.1 °F 37.1 °F 21.7 °F 44% 29.95 in 10.0 mi SE 8.1 mph - N/A   Overcast
8:16 PM 42.1 °F 36.1 °F 21.7 °F 44% 29.92 in 10.0 mi ESE 10.4 mph - N/A   Overcast
8:35 PM 42.3 °F 36.3 °F 21.7 °F 44% 29.92 in 10.0 mi ESE 10.4 mph 16.1 mph N/A   Overcast
8:56 PM 42.8 °F 37.5 °F 21.0 °F 42% 29.90 in 10.0 mi ESE 9.2 mph - N/A   Overcast
9:15 PM 43.0 °F 37.7 °F 21.2 °F 42% 29.91 in 10.0 mi ESE 9.2 mph - N/A   Overcast
9:35 PM 42.8 °F 38.0 °F 21.7 °F 43% 29.90 in 10.0 mi SE 8.1 mph - N/A   Overcast
9:55 PM 43.0 °F 38.2 °F 21.9 °F 43% 29.89 in 10.0 mi SE 8.1 mph 16.1 mph N/A   Overcast
10:15 PM 43.0 °F 37.7 °F 22.3 °F 44% 29.87 in 10.0 mi ESE 9.2 mph - N/A   Overcast
10:36 PM 43.3 °F 38.6 °F 22.6 °F 44% 29.87 in 10.0 mi SE 8.1 mph - N/A   Overcast
10:55 PM 43.2 °F 39.7 °F 22.6 °F 44% 29.87 in 10.0 mi SE 5.8 mph - N/A   Overcast
11:16 PM 42.3 °F 36.8 °F 26.6 °F 54% 29.86 in 10.0 mi SSE 9.2 mph 17.3 mph N/A Rain Light Rain
11:35 PM 42.8 °F 38.0 °F 28.0 °F 56% 29.85 in 10.0 mi SSE 8.1 mph - N/A   Overcast
11:55 PM 42.3 °F 37.3 °F 30.9 °F 64% 29.84 in 10.0 mi SSE 8.1 mph - N/A   Light Drizzle